Regional Weather Roundup
Issued by NWS

Home | Current Version | Previous Version | Text Only | Print | Product List | Glossary Off
Versions: 1 2 3 4 5 6 7 8 9 10 11 12 13 14 15 16 17 18 19 20 21 22 23 24 25 26 27 28 29 30 31 32 33 34 35 36 37 38 39 40 41 42 43 44 45 46 47 48 49 50

693
ASUS44 KJAN 200303
RWRMS

MISSISSIPPI HOURLY WEATHER ROUNDUP
NATIONAL WEATHER SERVICE JACKSON MS
900 PM CST WED NOV 19 2014

NOTE: "FAIR: INDICATES FEW OR NO CLOUDS BELOW 12,000 FEET WITH NO
SIGNIFICANT WEATHER AND/OR OBSTRUCTIONS TO VISIBILITY.

MSZ001>002-007>008-010>013-018>021-025>028-034>036-200400-
NORTHWEST MISSISSIPPI

CITY           SKY/WX    TMP DP  RH WIND       PRES   REMARKS
CLARKSDALE     FAIR      46  36  66 S8        30.20S
CLEVELAND      FAIR      44  37  75 S8        30.21S
GREENWOOD      CLEAR     44  30  57 SW8       30.23S
GREENVILLE     CLEAR     42  33  70 S10       30.21R
GRENADA        FAIR      46  30  53 CALM      30.23R
OLIVE BRANCH   CLEAR     43  34  70 SW10      30.17S
OXFORD         FAIR      43  28  56 SW6       30.21S
TUNICA         CLEAR     43  36  75 S9        30.19R
$$

MSZ003>006-009-014>017-022>024-029>033-037>039-200400-
NORTHEAST MISSISSIPPI

CITY           SKY/WX    TMP DP  RH WIND       PRES   REMARKS
COLUMBUS AFB   CLEAR     41  24  52 S7        30.25R
CORINTH        FAIR      43  28  56 S7        30.18S
GOLDN TRIANGLE CLEAR     39  23  52 S7        30.24S WCI  34
STARKVILLE       N/A    N/A N/A N/A MISG        N/A
TUPELO         PTCLDY    38  24  57 SW7       30.21S WCI  33
$$

MSZ040-058-200400-
CENTRAL MISSISSIPPI

CITY           SKY/WX    TMP DP  RH WIND       PRES   REMARKS
JACKSON INTL   CLEAR     41  26  55 S7        30.27R
JACKSON HAWKNS CLEAR     42  26  53 S3        30.27R
MERIDIAN KEY   CLEAR     37  26  64 S9        30.29R WCI  30
MERIDIAN NAS   CLEAR     42  23  46 S3        30.29R
RAYMOND        FAIR      39  36  87 S3        30.27R
VICKSBURG      CLEAR     48  28  46 S5        30.26S
$$

MSZ059>079-200400-
SOUTH MISSISSIPPI

CITY           SKY/WX    TMP DP  RH WIND       PRES   REMARKS
BROOKHAVEN     FAIR      45  32  61 S6        30.29S
COLUMBIA       FAIR      43  30  61 MISG        N/A
HATTIESBURG    CLEAR     44  36  73 S7        30.33R
MCCOMB         CLEAR     43  34  70 S7        30.29F
NATCHEZ        CLEAR     46  25  42 S7        30.27S
PINE BELT      CLEAR     39  30  70 S6        30.32S WCI  35
$$

MSZ080>082-200400-
COASTAL MISSISSIPPI

CITY           SKY/WX    TMP DP  RH WIND       PRES   REMARKS
BAY ST LOUIS   CLEAR     37  32  81 CALM      30.36S
BILOXI         CLEAR     43  41  93 CALM      30.35S
PASCAGOULA     CLEAR     31  29  92 CALM      30.35S
GULFPORT       CLEAR     38  36  92 CALM      30.34F
$$



USA.gov is the U.S. government's official web portal to all federal, state and local government web resources and services.